Change the Weather History Date:

Thursday, October 3, 2013

  Actual Average Record
Temperature  
Mean Temperature 50 °F -  
Max Temperature 53 °F 64 °F 84 °F (1953)
Min Temperature 48 °F 39 °F 19 °F (1989)
Degree Days  
Heating Degree Days 14    
Moisture  
Dew Point 51 °F    
Average Humidity 96    
Maximum Humidity 100    
Minimum Humidity 88    
Precipitation  
Precipitation 0.31 in - - ()
Sea Level Pressure  
Sea Level Pressure 29.92 in    
Wind  
Wind Speed 12 mph (NE)    
Max Wind Speed 17 mph    
Max Gust Speed 25 mph    
Visibility 8 miles    
Events Rain , Thunderstorm    
Averages and records for this station are not official NWS values.
T = Trace of Precipitation, MM = Missing Value Source: NWS Daily Summary

Daily Weather History Graph

Daily Weather History Graph

Search for Another Location

Airport or City:

Trip Planner

Search our weather history database for the weather conditions in past years. The results will help you decide how hot, cold, wet, or windy it might be!

Date:

Astronomy

Oct. 03, 2013 Rise Set
Actual Time 7:22 AM CDT 6:57 PM CDT
Civil Twilight 6:52 AM CDT 7:26 PM CDT
Nautical Twilight 6:18 AM CDT 8:01 PM CDT
Astronomical Twilight 5:43 AM CDT 8:35 PM CDT
Moon 5:54 AM CDT (10/3) 6:07 PM CDT (10/3)
Length of Visible Light 12h 33m
Length of Day
11h 34m
Waning Crescent, 2% of the Moon is Illuminated
Oct 3
Waning Crescent
Oct 4
New
Oct 11
First Quarter
Oct 18
Full
Oct 26
Last Quarter

Hourly Weather History & Observations

Time (CDT) Temp. Dew Point Humidity Pressure Visibility Wind Dir Wind Speed Gust Speed Precip Events Conditions
12:13 AM 50.0 °F 48.2 °F 94% 29.90 in 10.0 mi NNE 11.5 mph - N/A   Clear
12:33 AM 50.0 °F 48.2 °F 94% 29.91 in 10.0 mi NNE 11.5 mph - N/A   Clear
12:53 AM 50.0 °F 48.2 °F 94% 29.91 in 10.0 mi NNE 12.7 mph 17.3 mph N/A   Clear
1:13 AM 51.8 °F 48.2 °F 88% 29.91 in 10.0 mi NNE 10.4 mph - N/A   Scattered Clouds
1:33 AM 50.0 °F 48.2 °F 94% 29.90 in 10.0 mi NNE 13.8 mph - N/A   Scattered Clouds
1:53 AM 50.0 °F 48.2 °F 94% 29.91 in 10.0 mi NNE 13.8 mph - N/A   Scattered Clouds
2:13 AM 50.0 °F 48.2 °F 94% 29.90 in 10.0 mi NNE 11.5 mph - N/A   Clear
2:33 AM 50.0 °F 48.2 °F 94% 29.90 in 10.0 mi NNE 11.5 mph - N/A   Clear
2:53 AM 50.0 °F 48.2 °F 94% 29.90 in 10.0 mi NNE 10.4 mph - N/A   Clear
3:13 AM 50.0 °F 48.2 °F 94% 29.90 in 10.0 mi NE 9.2 mph - N/A   Scattered Clouds
3:33 AM 50.0 °F 48.2 °F 94% 29.90 in 10.0 mi NNE 9.2 mph - N/A   Overcast
3:53 AM 50.0 °F 48.2 °F 94% 29.90 in 10.0 mi NNE 9.2 mph - N/A   Overcast
4:13 AM 48.2 °F 48.2 °F 100% 29.89 in 10.0 mi NE 9.2 mph - N/A   Overcast
4:33 AM 48.2 °F 48.2 °F 100% 29.90 in 10.0 mi NNE 8.1 mph - N/A   Mostly Cloudy
4:53 AM 48.2 °F 48.2 °F 100% 29.90 in 10.0 mi NE 9.2 mph - N/A   Mostly Cloudy
5:14 AM 50.0 °F 48.2 °F 94% 29.90 in 10.0 mi NNE 10.4 mph - N/A   Overcast
5:33 AM 50.0 °F 48.2 °F 94% 29.90 in 10.0 mi NE 9.2 mph - N/A   Overcast
5:53 AM 50.0 °F 48.2 °F 94% 29.90 in 7.0 mi NE 9.2 mph - N/A   Overcast
6:13 AM 50.0 °F 50.0 °F 100% 29.90 in 7.0 mi NE 11.5 mph - N/A   Overcast
6:33 AM 50.0 °F 50.0 °F 100% 29.90 in 7.0 mi NE 10.4 mph - N/A   Overcast
6:53 AM 50.0 °F 50.0 °F 100% 29.92 in 5.0 mi NE 9.2 mph - N/A   Overcast
7:13 AM 51.8 °F 50.0 °F 94% 29.92 in 7.0 mi NE 10.4 mph - N/A   Overcast
7:33 AM 51.8 °F 50.0 °F 94% 29.92 in 5.0 mi NE 9.2 mph - N/A   Overcast
7:53 AM 51.8 °F 50.0 °F 94% 29.92 in 3.0 mi NE 12.7 mph - N/A   Overcast
8:13 AM 51.8 °F 50.0 °F 94% 29.91 in 1.0 mi NE 15.0 mph - N/A   Overcast
8:33 AM 51.8 °F 51.8 °F 100% 29.91 in 0.8 mi NE 12.7 mph - N/A   Overcast
8:53 AM 51.8 °F 51.8 °F 100% 29.90 in 0.8 mi NE 16.1 mph - N/A   Overcast
9:13 AM 51.8 °F 51.8 °F 100% 29.90 in 1.0 mi NNE 13.8 mph - N/A   Overcast
9:33 AM 51.8 °F 51.8 °F 100% 29.90 in 1.8 mi NNE 13.8 mph - N/A   Overcast
9:53 AM 51.8 °F 51.8 °F 100% 29.91 in 2.5 mi NE 16.1 mph - N/A   Overcast
10:13 AM 51.8 °F 51.8 °F 100% 29.91 in 5.0 mi NNE 15.0 mph - N/A   Overcast
10:33 AM 51.8 °F 51.8 °F 100% 29.91 in 10.0 mi NNE 15.0 mph 21.9 mph N/A Thunderstorm Overcast
10:53 AM 51.8 °F 51.8 °F 100% 29.91 in 10.0 mi NNE 15.0 mph - N/A   Overcast
11:13 AM 51.8 °F 51.8 °F 100% 29.93 in 10.0 mi NNE 13.8 mph - N/A Thunderstorm Overcast
11:33 AM 51.8 °F 51.8 °F 100% 29.92 in 10.0 mi NNE 15.0 mph 21.9 mph N/A   Overcast
11:53 AM 51.8 °F 51.8 °F 100% 29.92 in 4.0 mi NNE 17.3 mph 21.9 mph N/A   Overcast
12:13 PM 51.8 °F 51.8 °F 100% 29.92 in 5.0 mi NE 13.8 mph - N/A   Drizzle
12:33 PM 51.8 °F 51.8 °F 100% 29.93 in 7.0 mi NNE 13.8 mph - 0.03 in Rain Light Rain
12:53 PM 51.8 °F 51.8 °F 100% 29.93 in 7.0 mi NE 11.5 mph - 0.06 in Rain Rain
1:13 PM 53.6 °F 51.8 °F 94% 29.91 in 10.0 mi NNE 15.0 mph - 0.03 in Rain Rain
1:33 PM 53.6 °F 51.8 °F 94% 29.90 in 10.0 mi NE 16.1 mph - 0.03 in   Mostly Cloudy
1:53 PM 53.6 °F 51.8 °F 94% 29.90 in 10.0 mi NE 16.1 mph 23.0 mph 0.03 in   Mostly Cloudy
2:13 PM 53.6 °F 51.8 °F 94% 29.91 in 10.0 mi NE 16.1 mph - N/A   Mostly Cloudy
2:33 PM 53.6 °F 51.8 °F 94% 29.91 in 10.0 mi NE 15.0 mph - N/A   Overcast
2:53 PM 53.6 °F 51.8 °F 94% 29.91 in 10.0 mi NNE 15.0 mph - N/A   Overcast
3:13 PM 53.6 °F 51.8 °F 94% 29.92 in 10.0 mi NNE 13.8 mph - N/A   Overcast
3:33 PM 53.6 °F 51.8 °F 94% 29.91 in 10.0 mi NE 12.7 mph - N/A   Overcast
3:53 PM 53.6 °F 51.8 °F 94% 29.91 in 7.0 mi NE 15.0 mph - N/A   Drizzle
4:13 PM 53.6 °F 51.8 °F 94% 29.92 in 5.0 mi NNE 12.7 mph 17.3 mph N/A   Drizzle
4:33 PM 53.6 °F 51.8 °F 94% 29.92 in 5.0 mi NNE 12.7 mph - N/A   Light Drizzle
4:53 PM 53.6 °F 51.8 °F 94% 29.92 in 5.0 mi NNE 13.8 mph - 0.01 in   Heavy Drizzle
5:14 PM 53.6 °F 51.8 °F 94% 29.92 in 5.0 mi NE 13.8 mph - 0.01 in Rain Light Rain
5:33 PM 53.6 °F 51.8 °F 94% 29.90 in 5.0 mi NE 16.1 mph 21.9 mph 0.02 in   Drizzle
5:53 PM 53.6 °F 51.8 °F 94% 29.89 in 10.0 mi NE 17.3 mph 25.3 mph 0.02 in   Mostly Cloudy
6:13 PM 53.6 °F 51.8 °F 94% 29.92 in 10.0 mi NE 11.5 mph 19.6 mph N/A   Mostly Cloudy
6:33 PM 53.6 °F 51.8 °F 94% 29.93 in 10.0 mi NNE 11.5 mph 18.4 mph N/A Rain Light Rain
6:53 PM 53.6 °F 51.8 °F 94% 29.93 in 7.0 mi NNE 15.0 mph - 0.03 in Rain Rain
7:13 PM 53.6 °F 51.8 °F 94% 29.94 in 7.0 mi NNE 11.5 mph 20.7 mph 0.06 in Rain Light Rain
7:33 PM 51.8 °F 51.8 °F 100% 29.95 in 10.0 mi NNE 13.8 mph 20.7 mph 0.09 in Rain Rain
7:53 PM 51.8 °F 51.8 °F 100% 29.95 in 7.0 mi NNE 15.0 mph - 0.11 in   Heavy Drizzle
8:13 PM 51.8 °F 51.8 °F 100% 29.95 in 7.0 mi NNE 16.1 mph 23.0 mph 0.02 in Rain Heavy Rain
8:33 PM 53.6 °F 51.8 °F 94% 29.96 in 7.0 mi NNE 17.3 mph 20.7 mph 0.04 in   Drizzle
8:53 PM 51.8 °F 51.8 °F 100% 29.97 in 5.0 mi NNE 15.0 mph - 0.04 in   Drizzle
9:13 PM 53.6 °F 51.8 °F 94% 29.97 in 10.0 mi NNE 13.8 mph 19.6 mph N/A   Light Drizzle
9:33 PM 53.6 °F 51.8 °F 94% 29.97 in 10.0 mi NNE 16.1 mph - 0.01 in   Overcast
9:53 PM 53.6 °F 51.8 °F 94% 29.98 in 10.0 mi NNE 13.8 mph 18.4 mph 0.01 in   Overcast
10:13 PM 53.6 °F 51.8 °F 94% 29.99 in 10.0 mi NNE 16.1 mph 20.7 mph N/A   Overcast
10:33 PM 53.6 °F 51.8 °F 94% 30.00 in 10.0 mi NNE 17.3 mph 23.0 mph N/A   Overcast
11:33 PM 51.8 °F 51.8 °F 100% 30.00 in 5.0 mi NE 12.7 mph - N/A   Light Drizzle
11:53 PM 51.8 °F 51.8 °F 100% 30.00 in 7.0 mi NE 15.0 mph 18.4 mph N/A   Overcast